[[{"header":{"parameterUnit":"m.s-1","parameterCategory":2,"la1":30.2992,"la2":30.254,"lo1":-89.0895,"lo2":-89.0443,"dy":0.0025,"dx":0.0025,"nx":19,"ny":19,"refTime":"2026-03-25T09:00:00:Z","depth":"0","parameterNumber":2,"parameterNumberName":"U-component_of_CURRENTS"},"data":[0,0,0,-0.3365,-0.3371,-0.3641,-0.3641,-0.3752,-0.3753,0,0,0,0,0,0,0,0,0,0,0,-0.3247,-0.3249,-0.3365,-0.3372,-0.364,-0.3641,-0.3752,-0.3753,0,0,0,0,0,0,0,0,0,0,0,-0.3247,-0.3249,-0.3251,-0.3373,-0.364,-0.3641,-0.3752,-0.3604,0,0,0,0,0,0,0,0,0,0,-0.337,-0.3252,-0.3248,-0.3251,-0.3375,-0.364,-0.3642,-0.3599,-0.3613,-0.3568,0,-0.3614,0,-0.3699,-0.3756,-0.3756,0,0,0,-0.3358,-0.324,-0.3368,-0.3251,-0.3377,-0.364,-0.3515,-0.3608,-0.3624,-0.3585,-0.3617,-0.3624,-0.3701,-0.3756,-0.3757,-0.3689,-0.3688,0,0,-0.3343,-0.3239,-0.3358,-0.3378,-0.3449,-0.3507,-0.3524,-0.362,-0.3597,-0.3618,-0.3628,-0.3703,-0.3757,-0.3757,-0.369,-0.3689,0,0,0,-0.331,-0.3227,-0.3357,-0.3371,-0.3447,-0.3515,-0.3534,-0.3592,-0.3652,-0.3631,-0.3704,-0.3757,-0.3758,-0.3691,-0.3689,-0.3559,0,0,0,-0.33,-0.3212,-0.335,-0.3283,-0.3446,-0.3544,-0.3502,-0.3644,-0.366,-0.3703,-0.3757,-0.3758,-0.3692,-0.369,-0.3565,-0.3523,0,0,0,-0.3235,-0.3203,-0.3249,-0.3278,-0.3412,-0.3547,-0.361,-0.3651,-0.3704,-0.3756,-0.3758,-0.3693,-0.3691,-0.3571,-0.3532,-0.3498,0,0,0,-0.3101,-0.3144,-0.3245,-0.3303,-0.341,-0.3558,-0.3611,-0.369,-0.373,-0.3757,-0.3692,-0.369,-0.3573,-0.3538,-0.3503,-0.3369,-0.3335,0,0,-0.3089,-0.3138,-0.3181,-0.3282,-0.3366,-0.352,-0.3533,-0.3606,-0.3663,-0.3645,-0.3646,-0.3563,-0.3533,-0.3499,-0.3214,-0.3185,0,0,0,-0.3135,-0.314,-0.3195,-0.3261,-0.341,-0.3441,-0.3547,-0.3562,-0.355,-0.3682,-0.3545,-0.353,-0.3513,-0.3442,-0.3418,-0.3334,-0.3677,-0.3677,-0.3678,-0.2948,-0.305,-0.3079,-0.3186,-0.3252,-0.3365,-0.3378,-0.3398,-0.3474,-0.342,-0.341,-0.3276,-0.3194,-0.3176,-0.3089,-0.3386,-0.3386,-0.3386,-0.3385,-0.2887,-0.2904,-0.2967,-0.3032,-0.3088,-0.3107,-0.3168,-0.32,-0.3182,-0.3253,-0.3244,-0.3289,-0.3142,-0.306,-0.3377,-0.3378,-0.3379,-0.338,-0.3381,-0.2762,-0.2779,-0.2828,-0.2874,-0.2885,-0.2976,-0.2977,-0.3041,-0.3064,-0.3044,-0.3033,-0.3035,-0.2981,-0.3064,-0.3064,-0.3064,-0.3063,-0.3063,-0.3063,-0.2623,-0.267,-0.2663,-0.2734,-0.275,-0.2802,-0.2894,-0.2901,-0.2893,-0.2887,-0.2886,-0.2893,-0.318,-0.3214,-0.3057,-0.3058,-0.3059,-0.3059,-0.306,-0.2467,-0.2511,-0.2495,-0.251,-0.2569,-0.254,-0.2694,-0.2672,-0.2703,-0.2647,-0.2577,-0.2805,-0.2849,-0.2867,-0.2894,-0.2664,-0.2664,-0.2664,-0.2664,-0.2337,-0.2372,-0.2316,-0.231,-0.2331,-0.2401,-0.2289,-0.2324,-0.2335,-0.2283,-0.2367,-0.2373,-0.2393,-0.2415,-0.2443,-0.2464,-0.213,-0.2129,-0.2129,-0.2206,-0.2231,-0.2131,-0.2172,-0.2195,-0.2192,-0.2012,-0.1947,-0.2014,-0.2106,-0.227,-0.2292,-0.231,-0.2348,-0.2398,-0.2445,-0.2487,0,0]},{"header":{"parameterUnit":"m.s-1","parameterCategory":2,"la1":30.2992,"la2":30.254,"lo1":-89.0895,"lo2":-89.0443,"dy":0.0025,"dx":0.0025,"nx":19,"ny":19,"refTime":"2026-03-25T09:00:00:Z","depth":"0","parameterNumber":3,"parameterNumberName":"V-component_of_CURRENTS"},"data":[0,0,0,-0.0198,-0.0194,0.0062,0.0063,0.042,0.0423,0,0,0,0,0,0,0,0,0,0,0,-0.0294,-0.0293,-0.0199,-0.0194,0.0061,0.0063,0.042,0.0423,0,0,0,0,0,0,0,0,0,0,0,-0.0294,-0.0293,-0.0292,-0.0193,0.0061,0.0063,0.0419,0.0227,0,0,0,0,0,0,0,0,0,0,-0.0021,-0.0135,-0.0294,-0.0292,-0.0192,0.0061,0.0063,0.0218,0.0239,0.0302,0,0.0315,0,0.0367,0.0444,0.0445,0,0,0,-0.0158,-0.0153,-0.0081,-0.0292,-0.019,0.006,-0.0044,0.023,0.0254,0.033,0.0321,0.0335,0.0373,0.0446,0.0448,0.0603,0.0602,0,0,-0.0173,-0.0238,-0.0098,-0.0067,-0.0155,-0.0052,-0.0036,0.0244,0.0254,0.0322,0.0343,0.0379,0.0449,0.0451,0.0603,0.0602,0,0,0,-0.0237,-0.0248,-0.0182,-0.0082,-0.0044,-0.0046,-0.0027,0.0242,0.0264,0.0347,0.0383,0.045,0.0454,0.0604,0.0603,0.037,0,0,0,-0.0244,-0.0287,-0.019,-0.0224,-0.0051,0.0096,-0.0036,0.0244,0.0278,0.0381,0.0451,0.0457,0.0605,0.0603,0.0378,0.0298,0,0,0,-0.03,-0.0293,-0.0273,-0.0229,-0.0132,0.0092,0.0132,0.0253,0.0299,0.0446,0.0458,0.0605,0.0604,0.0385,0.031,0.031,0,0,0,-0.0359,-0.038,-0.0276,-0.0285,-0.0136,-0.0031,0.0131,0.0235,0.0341,0.0452,0.0605,0.0603,0.0388,0.0318,0.0316,0.0437,0.0419,0,0,-0.0427,-0.039,-0.0397,-0.0298,-0.0267,-0.0061,-0.002,0.0185,0.0342,0.0524,0.0528,0.0376,0.0311,0.0311,0.0342,0.0326,0,0,0,-0.0445,-0.0454,-0.0423,-0.0378,-0.026,-0.0169,0.0039,0.0126,0.0271,0.0395,0.0408,0.0376,0.0383,0.047,0.0457,0.0726,0.0595,0.0596,0.0596,-0.0587,-0.0537,-0.0552,-0.0477,-0.041,-0.0233,-0.0158,0.0005,0.0167,0.0174,0.0207,0.008,0.0166,0.0159,0.0432,0.0224,0.0223,0.0223,0.0222,-0.0697,-0.0709,-0.0654,-0.0653,-0.0555,-0.0494,-0.0318,-0.0223,-0.0094,0.0026,0.0045,0.0246,0.0132,0.0429,0.0208,0.021,0.0212,0.0214,0.0215,-0.078,-0.0787,-0.0781,-0.0788,-0.0767,-0.0639,-0.0592,-0.0445,-0.0281,-0.0283,-0.0047,-0.004,0.0212,-0.0234,-0.0234,-0.0235,-0.0235,-0.0236,-0.0236,-0.0864,-0.0864,-0.0915,-0.0913,-0.0921,-0.0885,-0.0724,-0.0623,-0.04,-0.0255,-0.0251,0.0215,-0.0056,-0.0048,-0.0242,-0.0241,-0.024,-0.024,-0.0239,-0.0956,-0.0955,-0.1041,-0.1069,-0.1088,-0.1053,-0.0907,-0.0621,-0.0489,-0.0357,0.0146,-0.0198,-0.008,-0.0065,-0.0053,-0.0238,-0.0238,-0.0238,-0.0238,-0.1014,-0.1022,-0.1134,-0.12,-0.1233,-0.1132,-0.0924,-0.0578,-0.0056,0.0236,0.0293,0.0427,0.0416,0.0571,0.0572,0.0602,0.0588,0.0589,0.059,-0.1063,-0.11,-0.1183,-0.125,-0.1292,-0.1185,-0.0914,-0.041,0.0348,0.0648,0.0634,0.0599,0.0819,0.0779,0.1048,0.1027,0.1086,0,0]}],[{"header":{"parameterUnit":"m.s-1","parameterCategory":2,"la1":30.2992,"la2":30.254,"lo1":-89.0895,"lo2":-89.0443,"dy":0.0025,"dx":0.0025,"nx":19,"ny":19,"refTime":"2026-03-25T09:00:00:Z","depth":"2","parameterNumber":2,"parameterNumberName":"U-component_of_CURRENTS"},"data":[0,0,0,-0.2581,-0.2583,-0.2668,-0.2669,-0.286,-0.2862,0,0,0,0,0,0,0,0,0,0,0,-0.2548,-0.2549,-0.2581,-0.2583,-0.2668,-0.2669,-0.286,-0.2862,0,0,0,0,0,0,0,0,0,0,0,-0.2548,-0.2549,-0.2549,-0.2583,-0.2668,-0.2669,-0.2859,-0.2777,0,0,0,0,0,0,0,0,0,0,-0.2685,-0.2631,-0.2549,-0.2549,-0.2583,-0.2668,-0.2669,-0.2772,-0.2782,-0.2842,0,-0.2846,0,-0.2858,-0.2876,-0.2877,0,0,0,-0.2593,-0.2622,-0.2653,-0.2549,-0.2584,-0.2668,-0.2632,-0.2777,-0.2789,-0.2856,-0.2848,-0.2855,-0.2862,-0.2877,-0.2878,-0.2923,-0.2922,0,0,-0.2588,-0.2564,-0.2645,-0.2659,-0.2597,-0.263,-0.2635,-0.2783,-0.2789,-0.2849,-0.2859,-0.2865,-0.2879,-0.288,-0.2924,-0.2923,0,0,0,-0.2568,-0.256,-0.2586,-0.2652,-0.2661,-0.2632,-0.2638,-0.2782,-0.2792,-0.2861,-0.2867,-0.288,-0.2882,-0.2925,-0.2924,-0.2914,0,0,0,-0.2565,-0.2548,-0.2583,-0.257,-0.2657,-0.271,-0.2633,-0.2782,-0.2799,-0.2866,-0.288,-0.2884,-0.2926,-0.2924,-0.2917,-0.2916,0,0,0,-0.2546,-0.2546,-0.2554,-0.2568,-0.2602,-0.2707,-0.2725,-0.2785,-0.2803,-0.2877,-0.2885,-0.2927,-0.2925,-0.2919,-0.292,-0.2914,0,0,0,-0.2523,-0.2535,-0.2553,-0.2578,-0.2601,-0.2657,-0.2724,-0.2785,-0.2843,-0.2881,-0.2926,-0.2924,-0.292,-0.2922,-0.2916,-0.2747,-0.2725,0,0,-0.2528,-0.2535,-0.2553,-0.2572,-0.2616,-0.2646,-0.2687,-0.2793,-0.2818,-0.2889,-0.289,-0.2916,-0.292,-0.2914,-0.2602,-0.2585,0,0,0,-0.2549,-0.2551,-0.2571,-0.2599,-0.2647,-0.2679,-0.2753,-0.2769,-0.2809,-0.2838,-0.2867,-0.2869,-0.2867,-0.2767,-0.2752,-0.2912,-0.2912,-0.2912,-0.2913,-0.2491,-0.2536,-0.2557,-0.2607,-0.2646,-0.2705,-0.2727,-0.2748,-0.2797,-0.2775,-0.2825,-0.2764,-0.2652,-0.264,-0.2781,-0.2781,-0.2781,-0.2781,-0.2781,-0.2464,-0.2461,-0.253,-0.2565,-0.2619,-0.2653,-0.2713,-0.2732,-0.2744,-0.2758,-0.2757,-0.2715,-0.2624,-0.2779,-0.2779,-0.278,-0.278,-0.278,-0.278,-0.2386,-0.239,-0.2432,-0.2484,-0.2538,-0.2615,-0.2644,-0.2699,-0.2722,-0.2726,-0.2623,-0.2621,-0.2796,-0.2729,-0.2729,-0.2729,-0.2729,-0.2729,-0.2729,-0.2271,-0.2318,-0.2324,-0.2402,-0.2429,-0.2499,-0.2604,-0.2622,-0.2607,-0.2585,-0.2583,-0.2746,-0.2748,-0.2791,-0.2728,-0.2728,-0.2729,-0.2729,-0.2729,-0.2135,-0.2178,-0.2176,-0.2201,-0.2279,-0.2256,-0.2422,-0.2406,-0.2452,-0.2394,-0.2499,-0.2505,-0.2497,-0.2506,-0.254,-0.2417,-0.2417,-0.2417,-0.2417,-0.2023,-0.2055,-0.2023,-0.203,-0.2063,-0.213,-0.2015,-0.2027,-0.2122,-0.2123,-0.2136,-0.2092,-0.211,-0.2081,-0.2099,-0.2126,-0.1895,-0.1895,-0.1894,-0.1913,-0.1935,-0.1859,-0.1905,-0.1939,-0.1931,-0.1727,-0.158,-0.1656,-0.1877,-0.2086,-0.2374,-0.2344,-0.236,-0.2345,-0.2362,-0.2418,0,0]},{"header":{"parameterUnit":"m.s-1","parameterCategory":2,"la1":30.2992,"la2":30.254,"lo1":-89.0895,"lo2":-89.0443,"dy":0.0025,"dx":0.0025,"nx":19,"ny":19,"refTime":"2026-03-25T09:00:00:Z","depth":"2","parameterNumber":3,"parameterNumberName":"V-component_of_CURRENTS"},"data":[0,0,0,-0.0461,-0.046,-0.0383,-0.0382,-0.0151,-0.0149,0,0,0,0,0,0,0,0,0,0,0,-0.0485,-0.0485,-0.0461,-0.046,-0.0383,-0.0382,-0.0152,-0.0149,0,0,0,0,0,0,0,0,0,0,0,-0.0485,-0.0485,-0.0485,-0.046,-0.0383,-0.0382,-0.0152,-0.0237,0,0,0,0,0,0,0,0,0,0,-0.0327,-0.0379,-0.0485,-0.0485,-0.046,-0.0383,-0.0382,-0.0243,-0.0232,-0.0156,0,-0.0162,0,-0.0158,-0.0133,-0.0132,0,0,0,-0.0436,-0.0389,-0.0369,-0.0485,-0.0459,-0.0383,-0.0411,-0.0238,-0.0225,-0.0142,-0.0159,-0.0151,-0.0154,-0.0131,-0.013,-0.0014,-0.0015,0,0,-0.044,-0.0458,-0.0379,-0.0363,-0.0458,-0.0413,-0.0409,-0.0231,-0.0222,-0.0158,-0.0146,-0.0151,-0.013,-0.0128,-0.0014,-0.0014,0,0,0,-0.0469,-0.0462,-0.0449,-0.0371,-0.0372,-0.0412,-0.0406,-0.023,-0.0227,-0.0144,-0.0148,-0.0128,-0.0125,-0.0013,-0.0014,-0.0097,0,0,0,-0.047,-0.048,-0.0451,-0.0459,-0.0377,-0.0319,-0.0408,-0.0239,-0.022,-0.0149,-0.0128,-0.0123,-0.0012,-0.0013,-0.0093,-0.0136,0,0,0,-0.0485,-0.0481,-0.048,-0.0461,-0.044,-0.0323,-0.0309,-0.0235,-0.0222,-0.0132,-0.0122,-0.0012,-0.0013,-0.009,-0.013,-0.0112,0,0,0,-0.0495,-0.0526,-0.048,-0.0506,-0.0441,-0.042,-0.0311,-0.0273,-0.0211,-0.0127,-0.0012,-0.0014,-0.0089,-0.0126,-0.011,-0.0042,-0.0048,0,0,-0.0547,-0.0532,-0.0548,-0.0507,-0.052,-0.0428,-0.0406,-0.0279,-0.0198,-0.0055,-0.0053,-0.0094,-0.0129,-0.0112,-0.0117,-0.012,0,0,0,-0.0573,-0.0586,-0.0582,-0.0573,-0.0535,-0.048,-0.0369,-0.0307,-0.0201,-0.0171,-0.0097,-0.0117,-0.0102,-0.0057,-0.006,-0.002,-0.002,-0.002,-0.0019,-0.0657,-0.0636,-0.0664,-0.063,-0.0603,-0.0504,-0.0447,-0.0336,-0.0247,-0.0229,-0.0187,-0.0236,-0.0191,-0.0192,-0.0185,-0.0185,-0.0185,-0.0186,-0.0186,-0.0744,-0.0764,-0.0721,-0.0743,-0.0669,-0.063,-0.0487,-0.042,-0.0308,-0.0259,-0.024,-0.0151,-0.02,-0.0193,-0.0191,-0.019,-0.019,-0.0189,-0.0189,-0.0805,-0.0815,-0.0817,-0.0829,-0.0802,-0.071,-0.0654,-0.0531,-0.0395,-0.0375,-0.0266,-0.0263,-0.0261,-0.035,-0.035,-0.035,-0.035,-0.035,-0.0351,-0.0872,-0.0873,-0.092,-0.092,-0.0929,-0.0895,-0.0747,-0.0654,-0.0467,-0.0352,-0.035,-0.029,-0.0285,-0.0269,-0.0353,-0.0352,-0.0352,-0.0352,-0.0352,-0.095,-0.095,-0.1027,-0.1055,-0.1072,-0.1042,-0.0907,-0.0659,-0.0533,-0.042,-0.0308,-0.0308,-0.0261,-0.0257,-0.024,-0.031,-0.031,-0.031,-0.031,-0.0999,-0.1007,-0.1109,-0.117,-0.1198,-0.1111,-0.0946,-0.066,-0.0393,-0.026,-0.0262,-0.0227,-0.0229,-0.0178,-0.0175,-0.0155,-0.0204,-0.0204,-0.0204,-0.1043,-0.1076,-0.1153,-0.1213,-0.1252,-0.1161,-0.096,-0.0579,-0.0222,-0.0203,-0.0276,-0.0297,-0.0249,-0.0251,-0.0172,-0.0168,-0.0136,0,0]}],[{"header":{"parameterUnit":"m.s-1","parameterCategory":2,"la1":30.2992,"la2":30.254,"lo1":-89.0895,"lo2":-89.0443,"dy":0.0025,"dx":0.0025,"nx":19,"ny":19,"refTime":"2026-03-25T09:00:00:Z","depth":"4","parameterNumber":2,"parameterNumberName":"U-component_of_CURRENTS"},"data":[0,0,0,-0.1799,-0.1801,-0.1913,-0.1913,-0.1978,-0.1978,0,0,0,0,0,0,0,0,0,0,0,-0.1764,-0.1765,-0.1798,-0.1801,-0.1913,-0.1913,-0.1978,-0.1978,0,0,0,0,0,0,0,0,0,0,0,-0.1764,-0.1765,-0.1766,-0.1801,-0.1912,-0.1913,-0.1978,-0.1914,0,0,0,0,0,0,0,0,0,0,-0.1816,-0.1807,-0.1765,-0.1766,-0.1802,-0.1912,-0.1913,-0.1912,-0.1918,-0.1904,0,-0.1926,0,-0.1948,-0.1981,-0.1981,0,0,0,-0.1806,-0.1802,-0.1817,-0.1766,-0.1803,-0.1912,-0.1864,-0.1916,-0.1923,-0.1911,-0.1927,-0.193,-0.1949,-0.1981,-0.1981,-0.2039,-0.204,0,0,-0.18,-0.1797,-0.1813,-0.1822,-0.1837,-0.186,-0.1867,-0.1921,-0.1937,-0.1928,-0.1932,-0.195,-0.1981,-0.1981,-0.2039,-0.2039,0,0,0,-0.1779,-0.1793,-0.1809,-0.1818,-0.1842,-0.1863,-0.1871,-0.1935,-0.1937,-0.1933,-0.1951,-0.1981,-0.1981,-0.2038,-0.2039,-0.2115,0,0,0,-0.1775,-0.178,-0.1806,-0.1807,-0.1842,-0.1904,-0.1884,-0.1933,-0.194,-0.195,-0.1981,-0.1982,-0.2038,-0.2039,-0.2112,-0.212,0,0,0,-0.1758,-0.1779,-0.179,-0.1807,-0.1851,-0.1904,-0.191,-0.1936,-0.195,-0.1981,-0.1982,-0.2038,-0.2038,-0.2109,-0.2116,-0.2135,0,0,0,-0.1753,-0.1773,-0.179,-0.1829,-0.1849,-0.191,-0.191,-0.1973,-0.2005,-0.1981,-0.2038,-0.2039,-0.2108,-0.2113,-0.2132,-0.1835,0,0,0,-0.1767,-0.1776,-0.1797,-0.1814,-0.1876,-0.1895,-0.1974,-0.2021,-0.201,-0.2014,-0.2017,-0.2113,-0.2115,-0.2134,-0.1894,0,0,0,0,-0.1794,-0.1808,-0.1831,-0.1878,-0.1921,-0.1988,-0.2031,-0.2053,-0.2099,-0.2032,-0.2111,-0.2109,-0.2119,-0.1939,-0.2044,-0.2043,-0.2043,-0.2043,-0.2043,-0.1782,-0.182,-0.1864,-0.192,-0.1975,-0.2059,-0.211,-0.2142,-0.2135,-0.2173,-0.2172,-0.2234,-0.2048,-0.2184,-0.2184,-0.2185,-0.2185,-0.2185,-0.2185,-0.1777,-0.1783,-0.1878,-0.1936,-0.2023,-0.2096,-0.2188,-0.2217,-0.2265,-0.2244,-0.2251,-0.2032,-0.2193,-0.2191,-0.219,-0.2189,-0.2189,-0.2188,-0.2188,-0.172,-0.1728,-0.1801,-0.19,-0.2012,-0.2119,-0.2182,-0.2266,-0.2309,-0.2335,-0.2119,-0.2271,-0.2263,-0.2341,-0.2341,-0.2341,-0.2341,-0.2341,-0.2341,-0.1609,-0.1683,-0.1731,-0.1857,-0.1923,-0.203,-0.2179,-0.2203,-0.2281,-0.2148,-0.2346,-0.2285,-0.228,-0.227,-0.2344,-0.2343,-0.2343,-0.2343,-0.2343,-0.149,-0.1553,-0.1597,-0.1665,-0.1801,-0.1856,-0.205,-0.2037,-0.2043,-0.1979,-0.2042,-0.2056,-0.199,-0.1992,-0.1969,-0.1957,-0.1953,-0.1949,0,-0.1394,-0.1433,-0.1476,-0.1529,-0.1574,-0.1734,-0.1676,-0.1747,-0.1811,-0.1747,-0.2045,-0.2117,-0.2124,-0.2052,-0.2048,-0.202,0,0,0,-0.131,-0.1342,-0.1325,-0.141,-0.1451,-0.1499,-0.1644,-0.1586,-0.1818,-0.1727,-0.1859,-0.1883,-0.2165,-0.235,-0.2283,-0.2277,-0.2257,0,0]},{"header":{"parameterUnit":"m.s-1","parameterCategory":2,"la1":30.2992,"la2":30.254,"lo1":-89.0895,"lo2":-89.0443,"dy":0.0025,"dx":0.0025,"nx":19,"ny":19,"refTime":"2026-03-25T09:00:00:Z","depth":"4","parameterNumber":3,"parameterNumberName":"V-component_of_CURRENTS"},"data":[0,0,0,-0.0416,-0.0417,-0.0413,-0.0413,-0.0372,-0.0372,0,0,0,0,0,0,0,0,0,0,0,-0.0416,-0.0417,-0.0416,-0.0417,-0.0413,-0.0413,-0.0372,-0.0372,0,0,0,0,0,0,0,0,0,0,0,-0.0416,-0.0417,-0.0417,-0.0417,-0.0413,-0.0413,-0.0372,-0.0381,0,0,0,0,0,0,0,0,0,0,-0.0388,-0.0399,-0.0417,-0.0417,-0.0417,-0.0413,-0.0413,-0.0382,-0.038,-0.0368,0,-0.0376,0,-0.0379,-0.0369,-0.0369,0,0,0,-0.0404,-0.04,-0.0401,-0.0417,-0.0417,-0.0413,-0.0411,-0.0381,-0.038,-0.0366,-0.0376,-0.0375,-0.0378,-0.0369,-0.0369,-0.0327,-0.0327,0,0,-0.0404,-0.041,-0.0402,-0.04,-0.0428,-0.0411,-0.0411,-0.0381,-0.0382,-0.0376,-0.0374,-0.0377,-0.0369,-0.0369,-0.0328,-0.0327,0,0,0,-0.0414,-0.041,-0.0412,-0.0401,-0.0407,-0.0412,-0.0411,-0.0383,-0.0385,-0.0374,-0.0377,-0.0369,-0.0368,-0.0328,-0.0328,-0.0345,0,0,0,-0.0413,-0.0417,-0.0413,-0.0415,-0.0408,-0.0401,-0.0415,-0.0387,-0.0384,-0.0377,-0.0369,-0.0368,-0.0328,-0.0328,-0.0345,-0.0373,0,0,0,-0.0415,-0.0417,-0.042,-0.0416,-0.042,-0.0401,-0.0401,-0.0386,-0.0386,-0.0369,-0.0368,-0.0328,-0.0328,-0.0345,-0.0372,-0.0343,0,0,0,-0.0414,-0.0442,-0.0421,-0.0451,-0.042,-0.0432,-0.0401,-0.0407,-0.0399,-0.0369,-0.0328,-0.0328,-0.0345,-0.0371,-0.0343,-0.0361,0,0,0,-0.0452,-0.0446,-0.0464,-0.0446,-0.0473,-0.0431,-0.043,-0.0408,-0.0381,-0.0334,-0.0333,-0.0345,-0.0372,-0.0343,-0.0334,0,0,0,0,-0.0478,-0.0491,-0.0497,-0.0505,-0.0498,-0.0472,-0.0442,-0.0405,-0.0358,-0.0375,-0.0331,-0.0347,-0.0329,-0.0338,-0.0325,-0.0325,-0.0326,-0.0326,-0.0326,-0.0529,-0.0526,-0.0556,-0.0547,-0.0543,-0.0495,-0.0458,-0.0396,-0.0374,-0.0345,-0.035,-0.0329,-0.0339,-0.0326,-0.0326,-0.0326,-0.0326,-0.0326,-0.0326,-0.0589,-0.0607,-0.0593,-0.0625,-0.0585,-0.0572,-0.047,-0.0428,-0.0348,-0.0338,-0.0318,-0.0343,-0.0327,-0.0327,-0.0327,-0.0326,-0.0326,-0.0326,-0.0326,-0.0623,-0.0632,-0.0652,-0.0682,-0.0676,-0.0625,-0.058,-0.049,-0.0385,-0.0359,-0.0346,-0.0333,-0.0343,-0.0343,-0.0343,-0.0343,-0.0343,-0.0343,-0.0343,-0.0651,-0.0668,-0.0719,-0.0743,-0.0768,-0.0752,-0.0646,-0.0571,-0.0454,-0.0377,-0.0369,-0.0334,-0.0334,-0.0343,-0.0342,-0.0343,-0.0343,-0.0343,-0.0343,-0.069,-0.0706,-0.0783,-0.0825,-0.0867,-0.0845,-0.0763,-0.0582,-0.0494,-0.0396,-0.0362,-0.0361,-0.0354,-0.0353,-0.0363,-0.0368,-0.0369,-0.0369,0,-0.0714,-0.0727,-0.0833,-0.0901,-0.093,-0.089,-0.0773,-0.0658,-0.0494,-0.0493,-0.0499,-0.047,-0.0466,-0.0469,-0.0467,-0.0485,0,0,0,-0.0737,-0.0771,-0.0844,-0.0917,-0.0954,-0.0818,-0.0734,-0.0664,-0.053,-0.0423,-0.0375,-0.0373,-0.0405,-0.0342,-0.0329,-0.0328,-0.0342,0,0]}]]